GFSMA_prec_precacc_090.txt.gz
Total_Precipitation_Accumulation
0.25 0.25 0.19 0.11 0.40 0.05 0.00 0.00 0.00 0.00 0.00 0.00 0.00 0.00 0.00 0.00 0.00 0.00 0.00 0.00 0.00 0.00 0.01 0.01 0.00 0.00 0.00 0.00 0.00 0.00 0.01 0.07 0.09 0.16 0.20 0.16 0.16 0.19 0.24 0.24 0.24 0.17 0.17
0.32 0.26 0.18 0.07 0.24 0.05 0.00 0.00 0.00 0.00 0.00 0.00 0.00 0.00 0.00 0.00 0.00 0.00 0.00 0.00 0.00 0.00 0.01 0.00 0.00 0.00 0.00 0.00 0.00 0.00 0.00 0.00 0.03 0.06 0.19 0.18 0.15 0.19 0.19 0.18 0.23 0.27 0.20
0.45 0.22 0.15 0.08 0.06 0.01 0.00 0.00 0.00 0.00 0.00 0.00 0.00 0.00 0.00 0.00 0.00 0.00 0.00 0.00 0.00 0.00 0.00 0.01 0.00 0.00 0.00 0.00 0.00 0.00 0.00 0.00 0.01 0.05 0.08 0.18 0.16 0.14 0.19 0.20 0.24 0.29 0.30
0.52 0.25 0.15 0.06 0.01 0.00 0.00 0.00 0.00 0.00 0.00 0.00 0.00 0.00 0.00 0.00 0.00 0.00 0.00 0.00 0.00 0.00 0.00 0.00 0.00 0.00 0.00 0.00 0.00 0.00 0.00 0.00 0.00 0.00 0.01 0.08 0.27 0.23 0.15 0.20 0.33 0.37 0.37
0.47 0.17 0.09 0.05 0.05 0.03 0.00 0.00 0.00 0.00 0.01 0.00 0.00 0.00 0.00 0.00 0.00 0.00 0.00 0.00 0.00 0.00 0.00 0.00 0.00 0.00 0.00 0.00 0.00 0.00 0.00 0.00 0.00 0.01 0.01 0.00 0.03 0.21 0.32 0.30 0.31 0.45 0.47
0.41 0.17 0.12 0.16 0.16 0.10 0.01 0.00 0.00 0.00 0.00 0.00 0.00 0.00 0.00 0.00 0.00 0.00 0.00 0.00 0.00 0.00 0.00 0.00 0.00 0.00 0.00 0.00 0.00 0.00 0.00 0.00 0.00 0.01 0.01 0.00 0.01 0.01 0.05 0.18 0.37 0.55 0.63
0.39 0.19 0.16 0.18 0.14 0.08 0.03 0.00 0.01 0.03 0.01 0.00 0.00 0.00 0.00 0.00 0.00 0.00 0.00 0.00 0.00 0.00 0.00 0.00 0.00 0.00 0.00 0.00 0.00 0.00 0.00 0.01 0.00 0.00 0.00 0.01 0.01 0.00 0.00 0.03 0.13 0.28 0.49
0.32 0.26 0.19 0.09 0.06 0.07 0.05 0.03 0.04 0.03 0.05 0.05 0.03 0.03 0.02 0.01 0.00 0.00 0.00 0.01 0.00 0.01 0.01 0.00 0.00 0.00 0.00 0.00 0.00 0.00 0.00 0.00 0.00 0.01 0.01 0.00 0.01 0.01 0.00 0.01 0.04 0.17 0.34
0.23 0.26 0.30 0.18 0.11 0.07 0.06 0.06 0.06 0.05 0.10 0.06 0.04 0.16 0.19 0.14 0.15 0.03 0.00 0.01 0.02 0.01 0.02 0.02 0.02 0.01 0.00 0.00 0.00 0.00 0.00 0.00 0.00 0.01 0.03 0.02 0.00 0.01 0.02 0.01 0.02 0.02 0.07
0.22 0.20 0.24 0.17 0.10 0.08 0.08 0.07 0.06 0.04 0.20 0.25 0.05 0.02 0.05 0.17 0.25 0.24 0.08 0.01 0.00 0.02 0.03 0.03 0.04 0.07 0.08 0.05 0.03 0.02 0.00 0.00 0.00 0.00 0.01 0.06 0.06 0.03 0.03 0.04 0.03 0.03 0.03
0.15 0.20 0.15 0.22 0.11 0.07 0.14 0.19 0.11 0.12 0.19 0.24 0.11 0.13 0.08 0.15 0.15 0.17 0.16 0.12 0.05 0.03 0.04 0.07 0.06 0.08 0.11 0.13 0.14 0.12 0.07 0.03 0.01 0.00 0.00 0.01 0.07 0.12 0.10 0.07 0.09 0.09 0.10
0.17 0.16 0.18 0.13 0.15 0.12 0.20 0.24 0.31 0.31 0.41 0.38 0.24 0.25 0.23 0.22 0.21 0.28 0.23 0.16 0.17 0.09 0.09 0.18 0.23 0.18 0.18 0.14 0.14 0.13 0.10 0.05 0.03 0.03 0.01 0.01 0.01 0.05 0.08 0.10 0.11 0.12 0.15
0.09 0.10 0.20 0.16 0.14 0.24 0.28 0.41 0.45 0.45 0.47 0.54 0.65 0.58 0.51 0.44 0.31 0.36 0.41 0.35 0.38 0.27 0.23 0.19 0.17 0.14 0.19 0.30 0.29 0.27 0.21 0.16 0.11 0.05 0.02 0.01 0.01 0.00 0.01 0.02 0.07 0.10 0.13
0.10 0.13 0.21 0.37 0.33 0.35 0.35 0.39 0.52 0.69 0.80 0.75 0.70 0.62 0.48 0.38 0.40 0.49 0.55 0.58 0.45 0.21 0.14 0.10 0.05 0.08 0.08 0.12 0.21 0.23 0.12 0.12 0.16 0.17 0.15 0.09 0.03 0.02 0.02 0.03 0.03 0.06 0.08
0.36 0.30 0.36 0.47 0.48 0.41 0.52 0.61 0.59 0.44 0.36 0.32 0.36 0.42 0.43 0.36 0.32 0.26 0.32 0.40 0.66 0.47 0.12 0.03 0.04 0.04 0.07 0.10 0.12 0.18 0.21 0.16 0.15 0.14 0.11 0.12 0.14 0.11 0.04 0.03 0.03 0.05 0.07
0.47 0.52 0.50 0.49 0.42 0.31 0.33 0.38 0.33 0.27 0.34 0.36 0.36 0.40 0.34 0.28 0.28 0.26 0.28 0.27 0.30 0.31 0.19 0.01 0.01 0.00 0.01 0.02 0.04 0.05 0.09 0.16 0.16 0.17 0.21 0.09 0.04 0.10 0.16 0.14 0.07 0.07 0.11
0.64 0.68 0.48 0.36 0.29 0.43 0.48 0.37 0.37 0.37 0.38 0.42 0.39 0.33 0.27 0.24 0.23 0.21 0.19 0.18 0.15 0.16 0.19 0.08 0.04 0.04 0.03 0.03 0.01 0.00 0.01 0.03 0.07 0.11 0.21 0.22 0.18 0.18 0.18 0.22 0.24 0.15 0.11
0.75 0.58 0.39 0.31 0.33 0.39 0.57 0.72 0.62 0.54 0.50 0.47 0.43 0.37 0.30 0.29 0.33 0.34 0.36 0.33 0.29 0.25 0.32 0.29 0.16 0.12 0.09 0.07 0.05 0.03 0.03 0.02 0.03 0.08 0.17 0.28 0.35 0.29 0.27 0.26 0.26 0.22 0.13
0.39 0.34 0.36 0.31 0.34 0.34 0.34 0.33 0.34 0.38 0.42 0.43 0.45 0.43 0.35 0.29 0.24 0.22 0.24 0.25 0.23 0.24 0.26 0.28 0.18 0.10 0.08 0.06 0.08 0.08 0.07 0.05 0.03 0.06 0.08 0.13 0.19 0.25 0.30 0.33 0.30 0.28 0.25
0.17 0.19 0.15 0.15 0.15 0.18 0.21 0.22 0.27 0.29 0.27 0.23 0.23 0.27 0.37 0.44 0.43 0.38 0.33 0.28 0.25 0.25 0.24 0.24 0.21 0.15 0.14 0.09 0.10 0.13 0.12 0.10 0.09 0.10 0.12 0.12 0.18 0.21 0.21 0.23 0.26 0.23 0.21
0.13 0.16 0.15 0.18 0.21 0.19 0.20 0.20 0.17 0.15 0.15 0.17 0.17 0.19 0.21 0.24 0.24 0.24 0.25 0.21 0.22 0.26 0.28 0.28 0.25 0.18 0.16 0.12 0.13 0.14 0.19 0.15 0.18 0.22 0.19 0.16 0.16 0.17 0.20 0.29 0.31 0.32 0.26
0.25 0.27 0.37 0.37 0.28 0.25 0.36 0.25 0.14 0.07 0.05 0.05 0.05 0.05 0.08 0.12 0.10 0.15 0.20 0.23 0.22 0.28 0.34 0.32 0.32 0.31 0.22 0.24 0.26 0.32 0.39 0.44 0.44 0.35 0.36 0.29 0.23 0.24 0.29 0.38 0.50 0.53 0.52
0.53 0.58 0.48 0.40 0.28 0.21 0.33 0.28 0.21 0.06 0.04 0.04 0.03 0.04 0.06 0.10 0.15 0.09 0.19 0.25 0.32 0.47 0.56 0.55 0.59 0.52 0.46 0.42 0.41 0.46 0.51 0.55 0.52 0.42 0.39 0.37 0.28 0.25 0.20 0.24 0.33 0.27 0.29
0.55 0.46 0.32 0.23 0.19 0.18 0.30 0.32 0.33 0.13 0.07 0.08 0.08 0.07 0.08 0.10 0.19 0.24 0.33 0.45 0.51 0.61 0.64 0.65 0.71 0.75 0.73 0.67 0.66 0.65 0.63 0.59 0.49 0.37 0.31 0.33 0.24 0.25 0.25 0.21 0.31 0.26 0.22
0.19 0.11 0.14 0.18 0.15 0.17 0.34 0.25 0.27 0.10 0.11 0.14 0.14 0.16 0.20 0.17 0.44 0.42 0.31 0.34 0.41 0.46 0.56 0.56 0.56 0.64 0.71 0.63 0.54 0.59 0.57 0.65 0.63 0.44 0.34 0.34 0.28 0.31 0.30 0.29 0.29 0.27 0.20
0.09 0.10 0.12 0.16 0.26 0.17 0.37 0.25 0.20 0.13 0.24 0.24 0.24 0.28 0.52 0.39 0.56 0.36 0.31 0.23 0.32 0.32 0.32 0.42 0.45 0.46 0.43 0.44 0.49 0.44 0.48 0.75 0.87 0.80 0.58 0.59 0.45 0.44 0.53 0.41 0.34 0.29 0.25

GFSMA_prec_precacc_096.txt.gz
Total_Precipitation_Accumulation
0.27 0.26 0.21 0.21 0.58 0.56 0.64 0.31 0.18 0.12 0.05 0.02 0.00 0.00 0.00 0.00 0.00 0.00 0.00 0.00 0.01 0.01 0.02 0.02 0.02 0.02 0.02 0.01 0.00 0.00 0.02 0.07 0.09 0.16 0.20 0.16 0.16 0.19 0.24 0.24 0.24 0.17 0.17
0.35 0.33 0.27 0.18 0.35 0.34 0.50 0.47 0.16 0.09 0.04 0.00 0.00 0.00 0.00 0.00 0.00 0.00 0.00 0.00 0.01 0.01 0.03 0.02 0.02 0.01 0.01 0.01 0.00 0.00 0.00 0.00 0.03 0.06 0.19 0.18 0.15 0.19 0.19 0.18 0.23 0.27 0.20
0.51 0.36 0.35 0.20 0.18 0.19 0.23 0.34 0.13 0.07 0.02 0.00 0.00 0.00 0.00 0.00 0.00 0.00 0.00 0.00 0.00 0.01 0.02 0.03 0.02 0.01 0.01 0.00 0.00 0.00 0.00 0.00 0.01 0.05 0.08 0.18 0.16 0.14 0.19 0.20 0.24 0.29 0.30
0.60 0.47 0.38 0.22 0.18 0.16 0.11 0.17 0.05 0.04 0.02 0.01 0.00 0.00 0.00 0.00 0.00 0.00 0.00 0.00 0.00 0.00 0.01 0.02 0.02 0.01 0.01 0.00 0.00 0.00 0.00 0.00 0.00 0.00 0.01 0.08 0.27 0.23 0.15 0.20 0.33 0.37 0.37
0.64 0.47 0.41 0.24 0.24 0.21 0.09 0.08 0.03 0.03 0.02 0.01 0.00 0.00 0.00 0.00 0.00 0.00 0.00 0.00 0.00 0.00 0.00 0.00 0.00 0.00 0.00 0.00 0.00 0.00 0.00 0.00 0.00 0.01 0.01 0.00 0.03 0.21 0.32 0.30 0.31 0.45 0.47
0.76 0.61 0.59 0.36 0.38 0.28 0.17 0.09 0.03 0.03 0.02 0.00 0.00 0.00 0.00 0.00 0.00 0.00 0.00 0.00 0.00 0.00 0.00 0.00 0.00 0.00 0.00 0.00 0.00 0.00 0.00 0.00 0.00 0.01 0.01 0.00 0.01 0.01 0.05 0.18 0.37 0.55 0.63
0.87 0.58 0.51 0.43 0.33 0.21 0.13 0.05 0.03 0.04 0.03 0.01 0.00 0.00 0.00 0.00 0.00 0.00 0.00 0.00 0.00 0.00 0.00 0.00 0.00 0.00 0.00 0.00 0.00 0.00 0.00 0.01 0.01 0.00 0.00 0.01 0.01 0.00 0.00 0.03 0.13 0.28 0.49
0.72 0.60 0.44 0.27 0.21 0.18 0.15 0.07 0.05 0.04 0.05 0.05 0.03 0.03 0.03 0.02 0.00 0.00 0.00 0.01 0.00 0.01 0.01 0.00 0.00 0.00 0.00 0.00 0.00 0.00 0.00 0.00 0.01 0.01 0.01 0.00 0.01 0.01 0.00 0.01 0.04 0.17 0.34
0.55 0.48 0.51 0.31 0.21 0.17 0.10 0.07 0.06 0.05 0.10 0.06 0.05 0.16 0.19 0.15 0.15 0.03 0.00 0.01 0.02 0.01 0.02 0.02 0.02 0.01 0.00 0.00 0.00 0.00 0.00 0.00 0.00 0.01 0.03 0.02 0.00 0.01 0.02 0.01 0.02 0.02 0.07
0.40 0.45 0.40 0.33 0.18 0.16 0.11 0.07 0.06 0.04 0.20 0.25 0.06 0.03 0.05 0.17 0.25 0.24 0.08 0.01 0.00 0.02 0.03 0.03 0.04 0.07 0.08 0.05 0.03 0.02 0.00 0.00 0.00 0.00 0.01 0.07 0.07 0.03 0.03 0.04 0.03 0.03 0.03
0.29 0.44 0.47 0.39 0.21 0.11 0.16 0.19 0.12 0.12 0.19 0.24 0.11 0.13 0.08 0.15 0.16 0.18 0.16 0.12 0.05 0.03 0.04 0.07 0.06 0.08 0.11 0.13 0.14 0.12 0.07 0.03 0.01 0.00 0.00 0.01 0.08 0.13 0.10 0.07 0.09 0.09 0.10
0.22 0.33 0.54 0.42 0.31 0.22 0.25 0.27 0.32 0.32 0.41 0.38 0.24 0.25 0.23 0.22 0.21 0.28 0.23 0.16 0.17 0.09 0.09 0.18 0.23 0.18 0.18 0.14 0.14 0.13 0.10 0.05 0.03 0.03 0.01 0.01 0.01 0.05 0.08 0.11 0.12 0.13 0.15
0.10 0.15 0.33 0.40 0.33 0.37 0.37 0.47 0.48 0.47 0.49 0.55 0.66 0.59 0.51 0.44 0.31 0.36 0.41 0.35 0.38 0.27 0.23 0.19 0.17 0.14 0.19 0.30 0.29 0.27 0.21 0.16 0.11 0.05 0.02 0.01 0.01 0.00 0.01 0.02 0.07 0.10 0.14
0.11 0.15 0.23 0.46 0.47 0.47 0.41 0.45 0.55 0.71 0.81 0.76 0.70 0.63 0.48 0.38 0.40 0.49 0.55 0.58 0.45 0.22 0.14 0.10 0.05 0.08 0.08 0.12 0.21 0.23 0.12 0.12 0.16 0.17 0.15 0.09 0.03 0.02 0.02 0.03 0.03 0.06 0.08
0.37 0.32 0.39 0.51 0.59 0.58 0.64 0.64 0.60 0.45 0.36 0.32 0.36 0.42 0.43 0.36 0.32 0.27 0.32 0.40 0.67 0.49 0.12 0.03 0.04 0.04 0.07 0.10 0.12 0.18 0.21 0.16 0.15 0.14 0.11 0.12 0.14 0.11 0.04 0.03 0.03 0.05 0.07
0.47 0.52 0.53 0.54 0.46 0.39 0.45 0.41 0.35 0.28 0.34 0.36 0.36 0.40 0.34 0.28 0.28 0.27 0.29 0.29 0.32 0.35 0.22 0.01 0.01 0.00 0.01 0.03 0.04 0.06 0.09 0.16 0.16 0.17 0.21 0.09 0.04 0.10 0.16 0.14 0.07 0.07 0.11
0.64 0.68 0.48 0.38 0.33 0.44 0.50 0.38 0.38 0.38 0.38 0.42 0.39 0.34 0.27 0.24 0.23 0.22 0.21 0.21 0.18 0.18 0.23 0.10 0.04 0.04 0.03 0.03 0.01 0.00 0.01 0.03 0.07 0.11 0.21 0.22 0.18 0.18 0.18 0.22 0.24 0.15 0.11
0.75 0.58 0.39 0.32 0.33 0.39 0.57 0.72 0.62 0.54 0.50 0.47 0.43 0.37 0.30 0.30 0.33 0.35 0.37 0.35 0.31 0.27 0.37 0.33 0.17 0.12 0.09 0.07 0.05 0.03 0.03 0.02 0.03 0.08 0.17 0.28 0.35 0.29 0.27 0.26 0.26 0.22 0.13
0.40 0.35 0.36 0.32 0.34 0.34 0.34 0.34 0.34 0.38 0.42 0.43 0.45 0.43 0.35 0.30 0.25 0.22 0.24 0.26 0.24 0.25 0.28 0.29 0.18 0.11 0.09 0.07 0.09 0.08 0.07 0.05 0.03 0.06 0.08 0.13 0.19 0.25 0.30 0.33 0.30 0.28 0.25
0.17 0.19 0.15 0.15 0.15 0.19 0.21 0.23 0.27 0.29 0.27 0.23 0.23 0.27 0.37 0.44 0.43 0.39 0.36 0.30 0.28 0.30 0.28 0.28 0.21 0.15 0.15 0.09 0.13 0.14 0.13 0.10 0.09 0.10 0.12 0.12 0.18 0.21 0.21 0.23 0.26 0.23 0.21
0.14 0.17 0.15 0.18 0.21 0.20 0.21 0.21 0.17 0.15 0.15 0.17 0.17 0.19 0.21 0.24 0.24 0.24 0.26 0.23 0.25 0.31 0.32 0.33 0.26 0.19 0.17 0.13 0.14 0.14 0.20 0.16 0.18 0.22 0.19 0.16 0.16 0.17 0.20 0.29 0.31 0.32 0.27
0.26 0.28 0.38 0.38 0.29 0.26 0.37 0.25 0.14 0.07 0.05 0.05 0.06 0.05 0.08 0.12 0.10 0.15 0.20 0.23 0.23 0.30 0.36 0.33 0.33 0.32 0.23 0.24 0.26 0.33 0.39 0.45 0.44 0.35 0.36 0.29 0.23 0.25 0.30 0.38 0.50 0.54 0.53
0.58 0.64 0.53 0.46 0.35 0.31 0.44 0.31 0.25 0.07 0.05 0.05 0.04 0.04 0.06 0.11 0.16 0.09 0.20 0.26 0.33 0.47 0.57 0.57 0.61 0.55 0.50 0.48 0.46 0.48 0.52 0.55 0.53 0.43 0.40 0.38 0.29 0.26 0.21 0.26 0.40 0.29 0.31
0.58 0.49 0.36 0.28 0.26 0.31 0.40 0.35 0.35 0.14 0.08 0.11 0.13 0.12 0.11 0.13 0.24 0.29 0.35 0.46 0.52 0.64 0.74 0.85 1.00 1.09 1.06 0.88 0.80 0.79 0.78 0.73 0.60 0.51 0.41 0.43 0.36 0.35 0.33 0.31 0.59 0.37 0.31
0.20 0.12 0.15 0.20 0.17 0.22 0.42 0.26 0.27 0.10 0.14 0.17 0.19 0.27 0.33 0.23 0.52 0.48 0.33 0.37 0.42 0.48 0.70 0.73 0.84 0.87 0.88 0.76 0.67 0.77 0.88 1.05 1.03 0.83 0.70 0.66 0.57 0.57 0.51 0.49 0.57 0.59 0.39
0.09 0.10 0.12 0.16 0.27 0.18 0.39 0.26 0.20 0.13 0.24 0.26 0.29 0.37 0.74 0.46 0.61 0.39 0.33 0.28 0.40 0.44 0.50 0.59 0.68 0.70 0.65 0.66 0.76 0.66 0.73 1.17 1.49 1.40 1.08 1.00 0.82 0.85 0.97 0.86 0.74 0.67 0.60

GFSMA_prec_precacc_102.txt.gz
Total_Precipitation_Accumulation
0.32 0.34 0.32 0.34 0.75 0.72 0.76 0.38 0.20 0.24 0.27 0.33 0.28 0.20 0.03 0.02 0.01 0.00 0.00 0.00 0.02 0.02 0.02 0.03 0.04 0.03 0.02 0.02 0.01 0.00 0.02 0.07 0.09 0.16 0.20 0.16 0.16 0.20 0.24 0.24 0.24 0.17 0.17
0.41 0.40 0.37 0.29 0.48 0.52 0.60 0.48 0.18 0.22 0.25 0.24 0.26 0.14 0.01 0.02 0.01 0.00 0.00 0.00 0.01 0.02 0.04 0.03 0.03 0.03 0.02 0.01 0.00 0.00 0.00 0.00 0.03 0.07 0.19 0.18 0.15 0.19 0.19 0.18 0.23 0.27 0.20
0.55 0.42 0.43 0.31 0.29 0.33 0.29 0.38 0.26 0.30 0.28 0.26 0.20 0.12 0.01 0.00 0.00 0.00 0.00 0.00 0.01 0.02 0.03 0.04 0.04 0.03 0.02 0.01 0.00 0.00 0.00 0.00 0.01 0.05 0.08 0.18 0.16 0.14 0.19 0.20 0.24 0.29 0.30
0.64 0.57 0.47 0.35 0.35 0.28 0.18 0.20 0.11 0.22 0.31 0.26 0.20 0.08 0.01 0.00 0.00 0.00 0.00 0.00 0.00 0.00 0.02 0.03 0.03 0.03 0.02 0.01 0.00 0.00 0.00 0.00 0.00 0.01 0.01 0.08 0.27 0.23 0.15 0.20 0.33 0.37 0.37
0.66 0.58 0.53 0.39 0.40 0.34 0.15 0.10 0.07 0.12 0.23 0.26 0.17 0.07 0.00 0.00 0.00 0.00 0.00 0.00 0.00 0.00 0.00 0.01 0.01 0.01 0.01 0.01 0.00 0.01 0.01 0.00 0.00 0.01 0.01 0.00 0.03 0.21 0.32 0.30 0.31 0.45 0.47
0.78 0.65 0.69 0.56 0.49 0.37 0.22 0.11 0.06 0.13 0.16 0.15 0.12 0.05 0.00 0.00 0.00 0.00 0.00 0.00 0.00 0.00 0.00 0.00 0.00 0.00 0.00 0.01 0.01 0.01 0.01 0.01 0.00 0.01 0.01 0.00 0.01 0.01 0.05 0.18 0.37 0.55 0.63
0.92 0.69 0.71 0.65 0.54 0.32 0.19 0.11 0.06 0.10 0.22 0.19 0.12 0.04 0.02 0.01 0.00 0.00 0.00 0.00 0.00 0.00 0.00 0.00 0.00 0.00 0.00 0.00 0.00 0.00 0.00 0.01 0.01 0.00 0.00 0.01 0.01 0.00 0.00 0.03 0.13 0.28 0.49
0.75 0.70 0.73 0.57 0.45 0.41 0.38 0.24 0.10 0.09 0.19 0.23 0.12 0.04 0.06 0.06 0.01 0.00 0.00 0.01 0.00 0.01 0.01 0.00 0.00 0.00 0.00 0.00 0.00 0.00 0.00 0.01 0.01 0.01 0.01 0.00 0.01 0.01 0.00 0.01 0.04 0.17 0.34
0.57 0.54 0.69 0.68 0.50 0.48 0.51 0.37 0.15 0.09 0.16 0.22 0.11 0.16 0.20 0.16 0.16 0.04 0.01 0.01 0.02 0.01 0.02 0.02 0.02 0.01 0.00 0.00 0.00 0.00 0.00 0.00 0.01 0.02 0.04 0.02 0.00 0.01 0.02 0.01 0.02 0.02 0.07
0.41 0.46 0.44 0.57 0.44 0.47 0.47 0.38 0.21 0.12 0.26 0.32 0.10 0.04 0.06 0.17 0.25 0.26 0.09 0.01 0.00 0.02 0.03 0.03 0.04 0.07 0.08 0.05 0.03 0.02 0.00 0.00 0.00 0.00 0.02 0.08 0.07 0.03 0.03 0.04 0.03 0.03 0.03
0.30 0.44 0.50 0.59 0.49 0.45 0.45 0.40 0.28 0.23 0.27 0.29 0.12 0.14 0.09 0.16 0.17 0.18 0.17 0.12 0.06 0.03 0.04 0.07 0.06 0.08 0.11 0.13 0.14 0.12 0.07 0.03 0.01 0.00 0.00 0.01 0.08 0.14 0.11 0.07 0.09 0.09 0.10
0.22 0.34 0.58 0.58 0.59 0.56 0.60 0.46 0.46 0.42 0.49 0.47 0.28 0.28 0.24 0.24 0.22 0.30 0.24 0.18 0.18 0.09 0.09 0.18 0.23 0.18 0.18 0.14 0.14 0.13 0.10 0.05 0.03 0.03 0.01 0.01 0.01 0.05 0.08 0.11 0.12 0.13 0.15
0.11 0.16 0.34 0.49 0.51 0.68 0.69 0.75 0.67 0.59 0.62 0.65 0.73 0.63 0.54 0.47 0.32 0.36 0.41 0.36 0.40 0.28 0.23 0.19 0.17 0.14 0.19 0.30 0.29 0.27 0.21 0.16 0.11 0.05 0.02 0.01 0.01 0.00 0.01 0.02 0.07 0.10 0.14
0.11 0.15 0.25 0.49 0.61 0.75 0.70 0.72 0.81 0.87 0.95 0.88 0.78 0.67 0.52 0.41 0.41 0.49 0.55 0.58 0.45 0.22 0.15 0.10 0.05 0.08 0.08 0.12 0.21 0.23 0.12 0.12 0.16 0.17 0.15 0.09 0.03 0.02 0.02 0.03 0.03 0.06 0.08
0.37 0.32 0.39 0.53 0.67 0.67 0.83 0.85 0.84 0.68 0.55 0.47 0.45 0.47 0.46 0.39 0.34 0.28 0.35 0.41 0.69 0.50 0.13 0.04 0.04 0.04 0.07 0.10 0.12 0.18 0.21 0.16 0.15 0.14 0.11 0.12 0.14 0.11 0.04 0.03 0.03 0.05 0.07
0.48 0.52 0.53 0.54 0.48 0.44 0.54 0.56 0.46 0.37 0.45 0.45 0.44 0.45 0.36 0.29 0.29 0.27 0.32 0.33 0.37 0.39 0.23 0.01 0.01 0.00 0.02 0.05 0.06 0.07 0.09 0.16 0.16 0.17 0.21 0.09 0.04 0.10 0.16 0.14 0.07 0.07 0.11
0.65 0.69 0.48 0.38 0.34 0.45 0.55 0.49 0.46 0.43 0.40 0.44 0.41 0.34 0.27 0.24 0.24 0.23 0.22 0.22 0.19 0.20 0.24 0.10 0.04 0.04 0.04 0.04 0.01 0.01 0.01 0.03 0.07 0.11 0.21 0.22 0.18 0.18 0.18 0.22 0.24 0.15 0.11
0.75 0.59 0.40 0.32 0.33 0.40 0.58 0.75 0.68 0.60 0.57 0.51 0.45 0.38 0.30 0.30 0.33 0.36 0.38 0.36 0.31 0.27 0.37 0.33 0.17 0.12 0.09 0.07 0.05 0.04 0.03 0.02 0.03 0.08 0.17 0.28 0.35 0.29 0.27 0.26 0.26 0.22 0.13
0.40 0.36 0.38 0.33 0.34 0.34 0.35 0.36 0.35 0.41 0.44 0.45 0.47 0.45 0.36 0.30 0.25 0.22 0.24 0.26 0.24 0.25 0.28 0.29 0.18 0.12 0.10 0.08 0.10 0.09 0.07 0.05 0.03 0.06 0.08 0.13 0.19 0.25 0.30 0.33 0.30 0.28 0.25
0.19 0.21 0.18 0.17 0.16 0.19 0.22 0.25 0.29 0.31 0.27 0.23 0.23 0.27 0.37 0.44 0.44 0.39 0.36 0.31 0.30 0.31 0.31 0.31 0.22 0.16 0.16 0.10 0.16 0.15 0.14 0.11 0.10 0.10 0.13 0.13 0.20 0.22 0.22 0.23 0.26 0.23 0.21
0.16 0.19 0.18 0.23 0.25 0.23 0.22 0.22 0.17 0.15 0.15 0.17 0.18 0.20 0.21 0.24 0.24 0.25 0.27 0.26 0.32 0.38 0.39 0.40 0.32 0.22 0.20 0.17 0.19 0.21 0.29 0.20 0.25 0.32 0.29 0.25 0.25 0.25 0.26 0.35 0.36 0.35 0.30
0.27 0.29 0.39 0.39 0.30 0.27 0.40 0.27 0.15 0.08 0.06 0.06 0.07 0.07 0.09 0.13 0.10 0.15 0.20 0.23 0.24 0.32 0.39 0.38 0.39 0.38 0.26 0.29 0.31 0.40 0.47 0.52 0.51 0.42 0.43 0.36 0.31 0.37 0.43 0.46 0.57 0.57 0.55
0.59 0.66 0.56 0.47 0.37 0.33 0.48 0.33 0.26 0.08 0.09 0.12 0.08 0.09 0.11 0.15 0.21 0.10 0.21 0.28 0.34 0.52 0.66 0.66 0.65 0.59 0.63 0.71 0.72 0.72 0.75 0.82 0.78 0.62 0.56 0.54 0.52 0.55 0.48 0.49 0.59 0.34 0.34
0.62 0.53 0.41 0.32 0.29 0.36 0.45 0.38 0.38 0.15 0.11 0.17 0.18 0.15 0.14 0.16 0.31 0.35 0.37 0.51 0.62 0.80 0.94 1.09 1.35 1.51 1.50 1.21 1.06 1.01 0.97 0.91 0.79 0.77 0.69 0.73 0.60 0.59 0.56 0.51 0.80 0.47 0.35
0.36 0.21 0.21 0.24 0.21 0.25 0.47 0.30 0.30 0.12 0.19 0.26 0.29 0.38 0.42 0.29 0.68 0.59 0.40 0.45 0.55 0.67 0.94 0.89 0.92 0.94 0.94 0.80 0.70 0.79 0.94 1.14 1.16 0.98 0.87 0.84 0.74 0.73 0.68 0.62 0.67 0.72 0.46
0.54 0.45 0.40 0.38 0.44 0.26 0.51 0.36 0.31 0.25 0.40 0.43 0.44 0.51 0.92 0.64 0.82 0.57 0.48 0.43 0.50 0.54 0.58 0.65 0.73 0.76 0.70 0.71 0.82 0.69 0.75 1.21 1.55 1.46 1.14 1.06 0.88 0.90 1.02 0.93 0.80 0.73 0.64

GFSMA_prec_precacc_105.txt.gz
Total_Precipitation_Accumulation
0.32 0.34 0.32 0.35 0.75 0.72 0.76 0.38 0.20 0.24 0.27 0.33 0.28 0.21 0.04 0.11 0.03 0.01 0.00 0.00 0.02 0.02 0.02 0.03 0.04 0.04 0.03 0.03 0.01 0.00 0.02 0.07 0.09 0.16 0.20 0.16 0.16 0.20 0.24 0.24 0.24 0.17 0.17
0.41 0.40 0.37 0.30 0.49 0.53 0.62 0.50 0.18 0.26 0.27 0.24 0.26 0.15 0.05 0.12 0.03 0.00 0.00 0.00 0.01 0.02 0.04 0.04 0.04 0.04 0.03 0.02 0.01 0.01 0.00 0.00 0.04 0.07 0.19 0.18 0.15 0.19 0.19 0.18 0.23 0.27 0.20
0.55 0.42 0.43 0.31 0.31 0.38 0.34 0.44 0.37 0.35 0.29 0.26 0.22 0.16 0.07 0.08 0.02 0.00 0.00 0.00 0.01 0.02 0.03 0.05 0.05 0.04 0.02 0.01 0.01 0.00 0.00 0.01 0.01 0.06 0.08 0.18 0.16 0.14 0.19 0.20 0.24 0.29 0.30
0.64 0.57 0.47 0.35 0.38 0.34 0.21 0.30 0.20 0.26 0.31 0.26 0.21 0.12 0.09 0.04 0.02 0.00 0.00 0.00 0.00 0.00 0.02 0.04 0.04 0.04 0.02 0.02 0.00 0.00 0.00 0.00 0.00 0.01 0.01 0.08 0.27 0.23 0.15 0.20 0.33 0.37 0.37
0.66 0.58 0.54 0.40 0.42 0.40 0.21 0.17 0.10 0.13 0.24 0.27 0.20 0.16 0.10 0.04 0.00 0.00 0.00 0.00 0.00 0.00 0.00 0.01 0.02 0.02 0.01 0.02 0.01 0.01 0.01 0.01 0.00 0.01 0.01 0.00 0.03 0.21 0.32 0.30 0.31 0.45 0.47
0.78 0.65 0.69 0.56 0.50 0.40 0.30 0.19 0.10 0.14 0.17 0.16 0.19 0.19 0.11 0.03 0.00 0.00 0.00 0.00 0.00 0.00 0.00 0.01 0.01 0.01 0.00 0.01 0.01 0.01 0.01 0.01 0.00 0.01 0.01 0.00 0.01 0.01 0.05 0.18 0.37 0.55 0.63
0.92 0.69 0.71 0.65 0.54 0.33 0.20 0.14 0.11 0.11 0.22 0.21 0.23 0.28 0.14 0.03 0.01 0.00 0.00 0.00 0.00 0.00 0.00 0.00 0.00 0.00 0.00 0.00 0.00 0.00 0.00 0.02 0.01 0.00 0.00 0.01 0.01 0.00 0.00 0.03 0.13 0.28 0.49
0.75 0.70 0.73 0.57 0.45 0.41 0.39 0.27 0.13 0.11 0.20 0.26 0.16 0.15 0.11 0.07 0.02 0.00 0.00 0.01 0.00 0.01 0.01 0.00 0.00 0.00 0.00 0.00 0.00 0.00 0.00 0.01 0.01 0.01 0.01 0.00 0.01 0.01 0.00 0.01 0.04 0.17 0.34
0.57 0.54 0.69 0.68 0.50 0.48 0.51 0.42 0.23 0.12 0.17 0.25 0.16 0.18 0.21 0.16 0.16 0.04 0.01 0.01 0.02 0.01 0.02 0.02 0.02 0.01 0.00 0.00 0.00 0.00 0.00 0.00 0.01 0.02 0.04 0.02 0.00 0.01 0.02 0.01 0.02 0.02 0.07
0.41 0.46 0.44 0.57 0.44 0.47 0.49 0.53 0.45 0.33 0.34 0.37 0.18 0.06 0.06 0.17 0.26 0.26 0.09 0.01 0.00 0.02 0.03 0.03 0.04 0.07 0.08 0.05 0.03 0.02 0.00 0.00 0.00 0.00 0.02 0.08 0.07 0.03 0.03 0.04 0.03 0.03 0.03
0.30 0.44 0.50 0.59 0.49 0.45 0.49 0.50 0.55 0.50 0.48 0.33 0.16 0.16 0.09 0.16 0.17 0.18 0.17 0.12 0.06 0.03 0.04 0.07 0.06 0.08 0.11 0.13 0.14 0.12 0.07 0.03 0.01 0.00 0.00 0.01 0.08 0.14 0.11 0.07 0.09 0.09 0.10
0.22 0.34 0.58 0.58 0.59 0.56 0.67 0.61 0.64 0.65 0.61 0.54 0.31 0.31 0.26 0.24 0.22 0.30 0.24 0.18 0.18 0.09 0.09 0.18 0.23 0.18 0.18 0.14 0.14 0.13 0.10 0.05 0.03 0.03 0.01 0.01 0.01 0.05 0.08 0.11 0.12 0.13 0.15
0.11 0.16 0.34 0.49 0.51 0.69 0.75 0.94 0.90 0.74 0.73 0.72 0.78 0.67 0.57 0.49 0.33 0.37 0.42 0.36 0.40 0.28 0.23 0.19 0.17 0.14 0.19 0.30 0.29 0.27 0.21 0.16 0.11 0.05 0.02 0.01 0.01 0.00 0.01 0.02 0.07 0.10 0.14
0.11 0.15 0.25 0.49 0.61 0.76 0.74 0.86 1.06 1.04 1.05 0.97 0.87 0.77 0.59 0.45 0.42 0.49 0.55 0.58 0.45 0.22 0.15 0.10 0.05 0.08 0.08 0.12 0.21 0.23 0.12 0.12 0.16 0.17 0.15 0.09 0.03 0.02 0.02 0.03 0.03 0.06 0.08
0.37 0.32 0.39 0.53 0.67 0.67 0.84 0.92 1.04 0.87 0.70 0.62 0.62 0.62 0.55 0.43 0.35 0.29 0.35 0.41 0.69 0.50 0.13 0.04 0.04 0.04 0.07 0.10 0.12 0.18 0.21 0.16 0.15 0.14 0.11 0.12 0.14 0.11 0.04 0.03 0.03 0.05 0.07
0.48 0.52 0.53 0.54 0.48 0.44 0.54 0.56 0.54 0.57 0.65 0.60 0.58 0.59 0.44 0.33 0.30 0.28 0.32 0.33 0.37 0.40 0.24 0.01 0.01 0.00 0.03 0.05 0.06 0.07 0.09 0.16 0.16 0.17 0.21 0.09 0.04 0.10 0.16 0.14 0.07 0.07 0.11
0.65 0.69 0.48 0.38 0.34 0.45 0.55 0.50 0.49 0.50 0.50 0.54 0.48 0.42 0.33 0.28 0.26 0.23 0.22 0.22 0.19 0.21 0.24 0.10 0.04 0.04 0.05 0.04 0.02 0.01 0.01 0.03 0.07 0.11 0.22 0.23 0.18 0.18 0.18 0.22 0.24 0.15 0.11
0.75 0.59 0.40 0.32 0.33 0.40 0.58 0.75 0.69 0.61 0.59 0.54 0.48 0.43 0.32 0.31 0.33 0.36 0.38 0.36 0.31 0.27 0.37 0.33 0.17 0.12 0.09 0.07 0.06 0.04 0.03 0.02 0.03 0.08 0.17 0.28 0.35 0.29 0.27 0.26 0.26 0.22 0.13
0.40 0.36 0.39 0.33 0.35 0.35 0.37 0.36 0.37 0.42 0.46 0.50 0.52 0.50 0.41 0.33 0.27 0.23 0.25 0.26 0.24 0.25 0.28 0.29 0.18 0.12 0.10 0.08 0.10 0.09 0.07 0.05 0.03 0.06 0.08 0.13 0.19 0.26 0.31 0.33 0.30 0.28 0.25
0.19 0.21 0.18 0.17 0.16 0.20 0.23 0.27 0.31 0.33 0.28 0.25 0.25 0.29 0.44 0.53 0.48 0.41 0.38 0.31 0.30 0.31 0.31 0.31 0.22 0.16 0.16 0.10 0.16 0.15 0.14 0.11 0.10 0.11 0.14 0.15 0.23 0.25 0.24 0.27 0.31 0.26 0.25
0.17 0.20 0.19 0.23 0.25 0.23 0.24 0.24 0.21 0.20 0.19 0.20 0.22 0.25 0.25 0.26 0.28 0.25 0.28 0.26 0.32 0.38 0.39 0.40 0.32 0.22 0.20 0.17 0.19 0.21 0.30 0.23 0.31 0.38 0.37 0.34 0.35 0.32 0.35 0.44 0.42 0.40 0.34
0.28 0.31 0.42 0.40 0.31 0.28 0.42 0.28 0.16 0.09 0.08 0.11 0.11 0.10 0.13 0.17 0.11 0.15 0.20 0.23 0.24 0.32 0.39 0.38 0.39 0.38 0.26 0.31 0.32 0.42 0.49 0.54 0.52 0.43 0.45 0.38 0.35 0.40 0.45 0.48 0.59 0.61 0.61
0.63 0.70 0.60 0.52 0.40 0.34 0.50 0.34 0.27 0.09 0.11 0.14 0.11 0.13 0.17 0.18 0.22 0.11 0.22 0.28 0.35 0.53 0.67 0.66 0.65 0.59 0.63 0.72 0.73 0.76 0.82 0.92 0.85 0.65 0.59 0.59 0.60 0.63 0.53 0.53 0.63 0.36 0.35
0.66 0.60 0.49 0.38 0.34 0.41 0.50 0.42 0.44 0.18 0.16 0.21 0.22 0.19 0.17 0.18 0.34 0.38 0.39 0.53 0.63 0.81 0.96 1.11 1.38 1.55 1.56 1.29 1.16 1.12 1.05 0.96 0.86 0.82 0.74 0.78 0.64 0.62 0.59 0.53 0.82 0.48 0.36
0.41 0.23 0.26 0.31 0.25 0.28 0.51 0.35 0.35 0.16 0.23 0.29 0.31 0.40 0.46 0.31 0.71 0.61 0.41 0.47 0.59 0.74 1.06 1.03 1.07 1.09 1.09 0.94 0.82 0.89 0.99 1.16 1.18 0.99 0.87 0.84 0.74 0.73 0.68 0.62 0.68 0.72 0.46
0.68 0.58 0.47 0.43 0.51 0.29 0.55 0.40 0.36 0.27 0.43 0.47 0.48 0.57 1.00 0.71 0.94 0.72 0.66 0.64 0.77 0.81 0.83 0.88 0.92 0.89 0.78 0.73 0.83 0.69 0.75 1.21 1.55 1.46 1.14 1.06 0.88 0.90 1.02 0.93 0.80 0.73 0.64

GFSMA_prec_precacc_108.txt.gz
Total_Precipitation_Accumulation
0.32 0.34 0.32 0.35 0.75 0.72 0.76 0.38 0.20 0.24 0.27 0.33 0.28 0.21 0.04 0.14 0.08 0.07 0.02 0.02 0.02 0.02 0.02 0.03 0.04 0.04 0.03 0.03 0.01 0.01 0.02 0.07 0.09 0.16 0.20 0.16 0.16 0.20 0.25 0.24 0.24 0.17 0.17
0.41 0.40 0.37 0.30 0.49 0.53 0.62 0.50 0.18 0.26 0.28 0.25 0.27 0.15 0.06 0.15 0.11 0.07 0.02 0.01 0.01 0.02 0.04 0.04 0.04 0.04 0.03 0.03 0.01 0.01 0.01 0.01 0.04 0.07 0.20 0.19 0.15 0.20 0.19 0.18 0.23 0.27 0.20
0.55 0.42 0.43 0.31 0.31 0.38 0.34 0.44 0.37 0.35 0.31 0.28 0.23 0.16 0.09 0.12 0.08 0.07 0.03 0.00 0.01 0.02 0.03 0.05 0.05 0.05 0.03 0.02 0.01 0.01 0.01 0.01 0.02 0.06 0.09 0.19 0.16 0.14 0.19 0.20 0.24 0.29 0.30
0.64 0.57 0.47 0.35 0.38 0.34 0.21 0.30 0.20 0.28 0.34 0.28 0.21 0.13 0.10 0.05 0.04 0.06 0.03 0.00 0.00 0.00 0.02 0.04 0.04 0.04 0.03 0.02 0.01 0.01 0.01 0.00 0.01 0.01 0.01 0.09 0.27 0.23 0.15 0.20 0.33 0.37 0.37
0.66 0.58 0.54 0.40 0.42 0.40 0.22 0.17 0.10 0.13 0.25 0.29 0.21 0.17 0.11 0.05 0.04 0.07 0.04 0.00 0.00 0.00 0.00 0.01 0.03 0.02 0.02 0.02 0.01 0.01 0.01 0.01 0.01 0.01 0.01 0.00 0.03 0.21 0.32 0.30 0.31 0.45 0.47
0.78 0.65 0.69 0.57 0.50 0.40 0.30 0.19 0.12 0.16 0.18 0.18 0.20 0.22 0.15 0.08 0.06 0.11 0.05 0.00 0.00 0.00 0.00 0.01 0.01 0.01 0.01 0.02 0.01 0.01 0.01 0.01 0.01 0.01 0.01 0.01 0.01 0.01 0.05 0.18 0.37 0.55 0.63
0.92 0.69 0.71 0.65 0.54 0.33 0.20 0.14 0.13 0.15 0.24 0.21 0.24 0.31 0.19 0.14 0.07 0.09 0.04 0.00 0.00 0.00 0.00 0.00 0.00 0.00 0.00 0.00 0.01 0.01 0.01 0.02 0.01 0.00 0.01 0.01 0.01 0.01 0.00 0.03 0.13 0.28 0.49
0.75 0.70 0.73 0.57 0.45 0.41 0.40 0.27 0.13 0.11 0.20 0.26 0.16 0.19 0.19 0.27 0.09 0.04 0.03 0.01 0.00 0.01 0.01 0.00 0.00 0.00 0.00 0.00 0.00 0.00 0.00 0.01 0.01 0.02 0.01 0.00 0.01 0.01 0.00 0.01 0.04 0.17 0.34
0.57 0.54 0.69 0.68 0.50 0.48 0.52 0.42 0.23 0.12 0.17 0.26 0.16 0.20 0.25 0.25 0.20 0.04 0.03 0.01 0.02 0.01 0.02 0.02 0.02 0.01 0.00 0.00 0.00 0.00 0.00 0.00 0.01 0.02 0.04 0.02 0.00 0.01 0.02 0.01 0.02 0.02 0.07
0.41 0.46 0.44 0.57 0.44 0.47 0.49 0.53 0.45 0.35 0.39 0.44 0.21 0.07 0.06 0.18 0.27 0.29 0.12 0.03 0.01 0.02 0.03 0.03 0.04 0.07 0.08 0.05 0.03 0.02 0.00 0.00 0.00 0.00 0.02 0.08 0.07 0.03 0.03 0.04 0.03 0.03 0.03
0.30 0.44 0.50 0.59 0.49 0.45 0.50 0.51 0.58 0.53 0.58 0.49 0.29 0.21 0.10 0.16 0.18 0.20 0.20 0.14 0.06 0.03 0.04 0.07 0.06 0.08 0.11 0.13 0.14 0.12 0.07 0.03 0.01 0.00 0.00 0.01 0.08 0.14 0.11 0.07 0.09 0.09 0.10
0.22 0.34 0.58 0.59 0.60 0.56 0.67 0.62 0.66 0.73 0.76 0.77 0.51 0.43 0.28 0.25 0.23 0.30 0.24 0.18 0.18 0.09 0.09 0.18 0.23 0.18 0.18 0.14 0.14 0.13 0.10 0.05 0.03 0.03 0.01 0.01 0.01 0.05 0.09 0.11 0.12 0.13 0.15
0.11 0.16 0.34 0.49 0.51 0.69 0.76 0.95 0.94 0.86 1.01 1.01 1.04 0.78 0.58 0.51 0.34 0.38 0.43 0.36 0.40 0.28 0.23 0.19 0.17 0.14 0.19 0.30 0.29 0.27 0.21 0.16 0.11 0.05 0.02 0.01 0.01 0.00 0.01 0.02 0.07 0.10 0.14
0.11 0.15 0.25 0.49 0.62 0.76 0.74 0.87 1.11 1.19 1.25 1.33 1.12 0.95 0.66 0.48 0.45 0.51 0.56 0.59 0.46 0.22 0.15 0.10 0.05 0.08 0.08 0.12 0.21 0.23 0.12 0.12 0.16 0.17 0.15 0.09 0.03 0.02 0.02 0.03 0.03 0.06 0.08
0.37 0.32 0.39 0.53 0.67 0.67 0.85 0.93 1.06 0.96 0.85 0.75 0.76 0.77 0.71 0.52 0.41 0.33 0.36 0.41 0.69 0.50 0.13 0.04 0.04 0.04 0.07 0.10 0.12 0.18 0.21 0.16 0.15 0.14 0.11 0.12 0.14 0.11 0.04 0.03 0.03 0.05 0.07
0.48 0.53 0.53 0.54 0.49 0.44 0.54 0.57 0.55 0.59 0.79 0.78 0.72 0.71 0.60 0.46 0.40 0.34 0.35 0.33 0.37 0.40 0.24 0.01 0.01 0.01 0.03 0.05 0.07 0.07 0.09 0.16 0.16 0.17 0.21 0.09 0.04 0.10 0.16 0.14 0.07 0.07 0.11
0.65 0.69 0.48 0.38 0.34 0.46 0.55 0.50 0.49 0.51 0.57 0.79 0.73 0.62 0.54 0.45 0.41 0.30 0.26 0.25 0.21 0.21 0.24 0.10 0.04 0.04 0.06 0.04 0.03 0.03 0.03 0.05 0.07 0.12 0.22 0.23 0.18 0.19 0.19 0.23 0.24 0.15 0.11
0.76 0.59 0.40 0.32 0.34 0.40 0.59 0.76 0.70 0.63 0.63 0.61 0.68 0.63 0.55 0.55 0.51 0.47 0.45 0.39 0.33 0.28 0.37 0.33 0.17 0.12 0.09 0.07 0.06 0.05 0.03 0.02 0.03 0.08 0.18 0.29 0.37 0.31 0.27 0.27 0.26 0.22 0.13
0.40 0.36 0.39 0.33 0.35 0.35 0.37 0.37 0.37 0.42 0.47 0.55 0.58 0.57 0.50 0.46 0.37 0.31 0.28 0.29 0.24 0.26 0.28 0.29 0.18 0.12 0.10 0.08 0.10 0.09 0.07 0.05 0.03 0.06 0.08 0.13 0.19 0.26 0.31 0.33 0.31 0.29 0.26
0.19 0.21 0.19 0.18 0.17 0.20 0.23 0.27 0.32 0.33 0.29 0.25 0.26 0.31 0.47 0.59 0.55 0.47 0.41 0.33 0.31 0.32 0.31 0.31 0.22 0.16 0.17 0.10 0.16 0.15 0.14 0.11 0.10 0.11 0.14 0.15 0.23 0.25 0.26 0.30 0.37 0.36 0.36
0.19 0.20 0.19 0.23 0.26 0.23 0.25 0.26 0.22 0.20 0.20 0.21 0.22 0.27 0.29 0.33 0.40 0.40 0.38 0.32 0.38 0.43 0.41 0.41 0.32 0.22 0.20 0.17 0.19 0.21 0.30 0.23 0.32 0.40 0.44 0.45 0.48 0.49 0.55 0.59 0.52 0.45 0.35
0.31 0.33 0.43 0.40 0.31 0.29 0.47 0.31 0.18 0.10 0.10 0.14 0.17 0.14 0.19 0.32 0.26 0.28 0.27 0.27 0.28 0.37 0.43 0.39 0.40 0.38 0.26 0.31 0.32 0.42 0.49 0.55 0.53 0.44 0.47 0.40 0.35 0.40 0.45 0.49 0.61 0.62 0.61
0.65 0.72 0.62 0.54 0.41 0.35 0.52 0.38 0.32 0.11 0.13 0.16 0.15 0.20 0.23 0.24 0.29 0.14 0.23 0.29 0.35 0.53 0.67 0.66 0.65 0.59 0.63 0.72 0.74 0.77 0.83 0.93 0.87 0.68 0.62 0.63 0.63 0.66 0.58 0.57 0.66 0.38 0.36
0.69 0.61 0.50 0.39 0.36 0.44 0.53 0.45 0.48 0.21 0.20 0.23 0.23 0.20 0.19 0.21 0.39 0.42 0.40 0.54 0.64 0.82 0.98 1.12 1.38 1.55 1.56 1.29 1.17 1.13 1.08 1.01 0.92 0.89 0.82 0.89 0.73 0.70 0.62 0.54 0.83 0.48 0.36
0.55 0.29 0.27 0.32 0.27 0.30 0.57 0.41 0.39 0.17 0.27 0.32 0.33 0.42 0.48 0.33 0.77 0.66 0.45 0.53 0.66 0.80 1.13 1.08 1.10 1.12 1.12 0.97 0.85 0.93 1.06 1.26 1.27 1.06 0.91 0.87 0.76 0.75 0.68 0.62 0.68 0.72 0.47
0.98 0.80 0.59 0.49 0.57 0.33 0.62 0.46 0.43 0.33 0.49 0.51 0.51 0.60 1.07 0.77 1.04 0.79 0.70 0.68 0.81 0.84 0.85 0.91 0.95 0.93 0.85 0.81 0.90 0.75 0.80 1.27 1.61 1.48 1.14 1.06 0.88 0.90 1.03 0.93 0.80 0.73 0.64

GFSMA_prec_precacc_114.txt.gz
Total_Precipitation_Accumulation
0.32 0.34 0.32 0.35 0.75 0.72 0.76 0.38 0.20 0.24 0.27 0.33 0.28 0.21 0.04 0.16 0.14 0.24 0.25 0.33 0.33 0.16 0.08 0.04 0.04 0.05 0.04 0.04 0.02 0.01 0.03 0.08 0.10 0.17 0.21 0.17 0.17 0.20 0.25 0.25 0.25 0.17 0.18
0.41 0.40 0.37 0.30 0.49 0.53 0.62 0.50 0.18 0.26 0.28 0.25 0.27 0.15 0.06 0.15 0.18 0.23 0.22 0.39 0.42 0.33 0.21 0.07 0.05 0.05 0.03 0.04 0.02 0.02 0.01 0.02 0.05 0.08 0.20 0.19 0.16 0.20 0.20 0.18 0.23 0.27 0.20
0.55 0.42 0.43 0.32 0.32 0.38 0.34 0.44 0.37 0.35 0.31 0.28 0.23 0.16 0.09 0.12 0.12 0.18 0.18 0.28 0.35 0.31 0.21 0.09 0.06 0.06 0.03 0.04 0.02 0.01 0.02 0.02 0.03 0.07 0.10 0.19 0.17 0.15 0.20 0.20 0.24 0.29 0.30
0.64 0.57 0.47 0.35 0.38 0.34 0.21 0.30 0.20 0.28 0.34 0.28 0.21 0.13 0.10 0.05 0.06 0.14 0.17 0.19 0.25 0.23 0.14 0.06 0.04 0.06 0.04 0.05 0.02 0.02 0.02 0.02 0.02 0.03 0.03 0.10 0.27 0.24 0.16 0.21 0.33 0.37 0.37
0.66 0.58 0.54 0.40 0.42 0.40 0.22 0.17 0.10 0.13 0.25 0.29 0.24 0.19 0.11 0.05 0.04 0.11 0.16 0.18 0.22 0.22 0.10 0.03 0.03 0.04 0.04 0.05 0.02 0.02 0.03 0.02 0.02 0.03 0.02 0.01 0.04 0.22 0.33 0.30 0.31 0.45 0.47
0.78 0.65 0.69 0.57 0.50 0.40 0.30 0.19 0.12 0.16 0.18 0.19 0.25 0.26 0.16 0.09 0.06 0.15 0.20 0.20 0.21 0.23 0.13 0.01 0.02 0.02 0.03 0.04 0.03 0.02 0.03 0.03 0.02 0.03 0.02 0.02 0.02 0.02 0.06 0.18 0.37 0.55 0.63
0.92 0.69 0.71 0.65 0.54 0.33 0.20 0.14 0.14 0.16 0.25 0.23 0.33 0.38 0.23 0.16 0.07 0.13 0.20 0.18 0.17 0.16 0.10 0.01 0.00 0.01 0.02 0.02 0.03 0.02 0.02 0.03 0.03 0.01 0.02 0.02 0.02 0.02 0.01 0.03 0.13 0.28 0.49
0.75 0.70 0.73 0.57 0.45 0.41 0.40 0.27 0.14 0.12 0.21 0.29 0.23 0.27 0.27 0.41 0.15 0.07 0.13 0.15 0.12 0.13 0.09 0.02 0.00 0.00 0.01 0.01 0.00 0.01 0.02 0.03 0.03 0.03 0.02 0.01 0.01 0.02 0.01 0.02 0.04 0.17 0.34
0.57 0.54 0.69 0.68 0.50 0.49 0.52 0.43 0.24 0.14 0.19 0.28 0.20 0.24 0.28 0.30 0.24 0.07 0.06 0.10 0.12 0.08 0.07 0.04 0.02 0.01 0.00 0.00 0.00 0.00 0.00 0.00 0.02 0.04 0.05 0.03 0.01 0.01 0.02 0.02 0.02 0.03 0.07
0.41 0.46 0.44 0.57 0.44 0.47 0.50 0.54 0.46 0.37 0.42 0.46 0.24 0.10 0.10 0.19 0.28 0.32 0.16 0.09 0.11 0.11 0.07 0.06 0.04 0.07 0.08 0.05 0.03 0.02 0.00 0.00 0.00 0.01 0.03 0.09 0.08 0.04 0.03 0.04 0.03 0.03 0.03
0.30 0.44 0.50 0.59 0.49 0.46 0.50 0.52 0.58 0.57 0.62 0.53 0.30 0.24 0.14 0.20 0.20 0.22 0.27 0.24 0.18 0.12 0.10 0.09 0.07 0.08 0.11 0.13 0.14 0.12 0.07 0.03 0.01 0.00 0.00 0.02 0.09 0.15 0.11 0.08 0.09 0.09 0.10
0.23 0.34 0.59 0.59 0.60 0.57 0.68 0.63 0.67 0.75 0.79 0.81 0.56 0.52 0.38 0.30 0.26 0.32 0.26 0.22 0.25 0.18 0.17 0.23 0.24 0.18 0.18 0.14 0.14 0.13 0.10 0.05 0.03 0.03 0.01 0.01 0.01 0.05 0.09 0.12 0.12 0.13 0.15
0.11 0.16 0.34 0.50 0.52 0.70 0.77 0.96 0.96 0.89 1.05 1.05 1.11 0.91 0.72 0.61 0.40 0.43 0.48 0.40 0.47 0.36 0.34 0.27 0.20 0.15 0.19 0.30 0.29 0.27 0.21 0.16 0.11 0.05 0.02 0.01 0.01 0.00 0.01 0.02 0.07 0.10 0.14
0.12 0.15 0.25 0.49 0.62 0.77 0.75 0.89 1.13 1.22 1.28 1.43 1.33 1.22 0.92 0.66 0.59 0.67 0.66 0.65 0.54 0.30 0.20 0.13 0.07 0.09 0.08 0.12 0.21 0.23 0.12 0.12 0.16 0.17 0.15 0.09 0.03 0.02 0.02 0.03 0.03 0.06 0.08
0.42 0.36 0.42 0.53 0.67 0.68 0.85 0.94 1.08 0.98 0.88 0.82 1.05 1.21 1.13 0.85 0.63 0.50 0.48 0.48 0.75 0.57 0.16 0.05 0.05 0.04 0.07 0.10 0.12 0.18 0.21 0.16 0.15 0.14 0.11 0.12 0.14 0.11 0.04 0.03 0.03 0.05 0.07
0.55 0.57 0.56 0.56 0.49 0.45 0.55 0.58 0.56 0.61 0.82 0.81 0.82 0.87 0.82 0.70 0.63 0.54 0.53 0.46 0.47 0.46 0.28 0.03 0.03 0.02 0.03 0.05 0.07 0.07 0.09 0.16 0.16 0.17 0.21 0.09 0.04 0.10 0.16 0.14 0.07 0.07 0.11
0.70 0.73 0.52 0.40 0.35 0.46 0.55 0.51 0.50 0.54 0.58 0.81 0.80 0.87 0.80 0.59 0.56 0.49 0.46 0.41 0.31 0.29 0.30 0.14 0.07 0.06 0.07 0.05 0.04 0.03 0.04 0.05 0.08 0.13 0.23 0.24 0.19 0.19 0.19 0.23 0.24 0.15 0.11
0.85 0.69 0.47 0.35 0.36 0.44 0.62 0.77 0.71 0.64 0.64 0.63 0.71 0.77 0.92 0.94 0.84 0.75 0.71 0.60 0.48 0.42 0.52 0.45 0.24 0.15 0.10 0.08 0.07 0.06 0.04 0.03 0.04 0.12 0.21 0.32 0.39 0.33 0.28 0.27 0.26 0.22 0.13
0.49 0.45 0.47 0.38 0.39 0.39 0.42 0.39 0.38 0.43 0.47 0.56 0.62 0.66 0.71 0.79 0.89 0.76 0.63 0.57 0.48 0.48 0.49 0.48 0.31 0.18 0.12 0.08 0.10 0.09 0.08 0.07 0.06 0.09 0.10 0.14 0.19 0.26 0.31 0.34 0.31 0.29 0.26
0.28 0.28 0.26 0.26 0.24 0.23 0.25 0.28 0.32 0.34 0.29 0.26 0.31 0.47 0.61 0.74 0.83 0.83 0.80 0.65 0.62 0.60 0.52 0.48 0.38 0.27 0.21 0.13 0.19 0.17 0.16 0.14 0.14 0.12 0.15 0.16 0.24 0.26 0.26 0.31 0.38 0.38 0.39
0.26 0.28 0.28 0.31 0.34 0.32 0.33 0.29 0.22 0.21 0.21 0.21 0.23 0.30 0.40 0.47 0.55 0.59 0.71 0.67 0.67 0.68 0.64 0.59 0.46 0.32 0.26 0.20 0.22 0.23 0.33 0.29 0.40 0.45 0.47 0.46 0.50 0.51 0.58 0.66 0.59 0.53 0.45
0.52 0.52 0.56 0.55 0.46 0.41 0.64 0.45 0.21 0.11 0.12 0.17 0.20 0.16 0.21 0.45 0.48 0.54 0.57 0.60 0.66 0.75 0.73 0.61 0.56 0.52 0.35 0.39 0.39 0.48 0.53 0.59 0.58 0.47 0.49 0.46 0.42 0.45 0.48 0.51 0.65 0.64 0.63
1.07 1.12 1.04 0.91 0.66 0.50 0.69 0.56 0.42 0.13 0.17 0.20 0.20 0.27 0.31 0.31 0.40 0.29 0.57 0.62 0.64 0.87 1.00 0.91 0.89 0.76 0.76 0.83 0.86 0.88 0.92 0.97 0.89 0.70 0.66 0.70 0.70 0.72 0.64 0.63 0.74 0.41 0.38
1.35 1.09 0.95 0.83 0.80 0.78 0.72 0.61 0.57 0.23 0.24 0.28 0.28 0.28 0.28 0.29 0.50 0.53 0.52 0.72 0.89 1.06 1.22 1.33 1.51 1.63 1.62 1.36 1.25 1.21 1.13 1.08 1.00 0.95 0.90 0.98 0.85 0.83 0.76 0.67 0.98 0.55 0.39
1.05 0.96 0.84 0.79 0.67 0.58 0.80 0.57 0.46 0.19 0.30 0.37 0.38 0.48 0.58 0.41 0.89 0.79 0.53 0.65 0.84 0.97 1.34 1.32 1.34 1.33 1.26 1.07 0.92 0.96 1.09 1.29 1.33 1.14 1.04 1.03 0.92 0.89 0.80 0.71 0.77 0.81 0.50
1.21 1.16 1.10 1.04 1.07 0.68 0.95 0.78 0.68 0.47 0.56 0.55 0.54 0.65 1.21 0.87 1.19 0.89 0.76 0.72 0.90 0.96 0.97 1.02 1.08 1.05 0.94 0.88 0.99 0.81 0.85 1.33 1.71 1.63 1.31 1.24 1.08 1.10 1.22 1.06 0.87 0.76 0.66

GFSMA_prec_precacc_117.txt.gz
Total_Precipitation_Accumulation
0.32 0.34 0.32 0.35 0.75 0.72 0.76 0.38 0.20 0.24 0.27 0.33 0.28 0.21 0.04 0.16 0.16 0.27 0.26 0.40 0.48 0.45 0.30 0.07 0.05 0.05 0.04 0.04 0.03 0.02 0.03 0.09 0.10 0.17 0.21 0.18 0.17 0.21 0.25 0.25 0.25 0.18 0.18
0.41 0.40 0.37 0.30 0.49 0.53 0.62 0.50 0.18 0.26 0.28 0.25 0.27 0.15 0.06 0.15 0.19 0.31 0.27 0.51 0.67 0.73 0.71 0.30 0.07 0.05 0.04 0.04 0.02 0.02 0.02 0.02 0.05 0.09 0.21 0.20 0.16 0.20 0.20 0.19 0.23 0.27 0.20
0.55 0.42 0.43 0.32 0.32 0.38 0.34 0.44 0.37 0.35 0.31 0.28 0.23 0.16 0.09 0.12 0.12 0.22 0.20 0.30 0.42 0.46 0.58 0.59 0.25 0.07 0.04 0.04 0.02 0.02 0.02 0.03 0.04 0.08 0.11 0.20 0.17 0.15 0.20 0.21 0.24 0.29 0.30
0.64 0.57 0.47 0.35 0.38 0.34 0.21 0.30 0.20 0.28 0.34 0.28 0.21 0.13 0.10 0.05 0.06 0.14 0.18 0.20 0.30 0.31 0.38 0.31 0.16 0.09 0.05 0.05 0.02 0.02 0.03 0.03 0.04 0.04 0.04 0.10 0.28 0.24 0.16 0.21 0.34 0.38 0.37
0.66 0.58 0.54 0.40 0.42 0.41 0.22 0.17 0.10 0.13 0.25 0.29 0.24 0.19 0.11 0.05 0.04 0.11 0.16 0.18 0.22 0.27 0.22 0.20 0.10 0.05 0.04 0.06 0.04 0.03 0.03 0.03 0.04 0.04 0.03 0.02 0.04 0.22 0.34 0.30 0.31 0.45 0.47
0.78 0.65 0.69 0.57 0.50 0.41 0.31 0.19 0.12 0.16 0.18 0.19 0.25 0.26 0.16 0.09 0.06 0.15 0.20 0.20 0.21 0.24 0.25 0.13 0.07 0.04 0.03 0.04 0.05 0.03 0.03 0.03 0.02 0.04 0.03 0.02 0.02 0.03 0.07 0.18 0.37 0.55 0.63
0.92 0.69 0.71 0.65 0.54 0.34 0.21 0.14 0.14 0.16 0.25 0.23 0.33 0.38 0.23 0.16 0.08 0.13 0.20 0.18 0.18 0.17 0.21 0.20 0.05 0.01 0.02 0.02 0.04 0.03 0.03 0.05 0.03 0.02 0.03 0.03 0.03 0.02 0.02 0.04 0.13 0.28 0.49
0.75 0.70 0.73 0.57 0.45 0.42 0.40 0.28 0.14 0.12 0.21 0.29 0.23 0.27 0.28 0.42 0.16 0.08 0.14 0.15 0.12 0.14 0.13 0.12 0.07 0.01 0.01 0.01 0.01 0.02 0.03 0.04 0.04 0.03 0.03 0.03 0.02 0.02 0.02 0.02 0.05 0.17 0.34
0.57 0.54 0.69 0.68 0.50 0.49 0.52 0.43 0.24 0.14 0.19 0.28 0.20 0.24 0.28 0.30 0.24 0.07 0.07 0.10 0.12 0.08 0.09 0.09 0.08 0.03 0.00 0.00 0.00 0.00 0.01 0.02 0.04 0.05 0.06 0.04 0.01 0.02 0.03 0.03 0.02 0.03 0.07
0.41 0.46 0.44 0.57 0.44 0.47 0.50 0.54 0.47 0.37 0.43 0.47 0.25 0.11 0.11 0.20 0.29 0.32 0.16 0.10 0.12 0.11 0.08 0.08 0.09 0.09 0.08 0.05 0.03 0.02 0.00 0.00 0.01 0.02 0.04 0.10 0.09 0.04 0.04 0.05 0.04 0.03 0.03
0.30 0.44 0.50 0.59 0.49 0.46 0.50 0.52 0.59 0.57 0.62 0.53 0.31 0.24 0.15 0.20 0.20 0.22 0.27 0.24 0.19 0.12 0.11 0.11 0.10 0.10 0.12 0.13 0.14 0.12 0.07 0.03 0.01 0.00 0.01 0.03 0.10 0.15 0.11 0.08 0.09 0.09 0.10
0.23 0.34 0.59 0.59 0.60 0.57 0.68 0.63 0.67 0.75 0.80 0.82 0.57 0.52 0.38 0.31 0.26 0.33 0.28 0.23 0.26 0.18 0.18 0.25 0.27 0.19 0.18 0.14 0.14 0.13 0.10 0.05 0.03 0.03 0.01 0.01 0.02 0.06 0.10 0.12 0.13 0.14 0.15
0.11 0.16 0.34 0.50 0.52 0.70 0.77 0.96 0.96 0.89 1.06 1.06 1.12 0.92 0.73 0.62 0.41 0.44 0.52 0.48 0.54 0.41 0.37 0.30 0.22 0.16 0.19 0.30 0.29 0.27 0.21 0.16 0.11 0.05 0.02 0.01 0.01 0.00 0.02 0.03 0.07 0.11 0.15
0.12 0.16 0.25 0.50 0.63 0.78 0.76 0.89 1.13 1.22 1.29 1.44 1.34 1.23 0.93 0.66 0.60 0.69 0.75 0.80 0.71 0.36 0.21 0.14 0.09 0.11 0.10 0.12 0.21 0.23 0.12 0.12 0.16 0.17 0.15 0.09 0.03 0.02 0.02 0.03 0.03 0.06 0.09
0.48 0.42 0.48 0.55 0.69 0.68 0.86 0.94 1.09 0.98 0.89 0.83 1.06 1.22 1.14 0.85 0.64 0.52 0.54 0.60 0.89 0.71 0.20 0.06 0.06 0.06 0.09 0.10 0.12 0.18 0.21 0.16 0.15 0.14 0.11 0.12 0.14 0.11 0.04 0.03 0.03 0.05 0.07
0.65 0.71 0.68 0.62 0.52 0.48 0.57 0.59 0.57 0.61 0.83 0.83 0.83 0.87 0.82 0.71 0.65 0.58 0.58 0.53 0.58 0.61 0.39 0.05 0.05 0.04 0.05 0.06 0.07 0.07 0.09 0.16 0.16 0.17 0.21 0.09 0.04 0.10 0.16 0.14 0.07 0.07 0.11
0.81 0.82 0.65 0.51 0.43 0.52 0.58 0.53 0.51 0.54 0.59 0.82 0.80 0.87 0.80 0.60 0.57 0.49 0.47 0.44 0.37 0.39 0.42 0.20 0.10 0.10 0.10 0.07 0.05 0.04 0.04 0.06 0.08 0.13 0.23 0.24 0.19 0.19 0.19 0.23 0.24 0.15 0.11
0.88 0.75 0.55 0.45 0.44 0.49 0.66 0.81 0.73 0.65 0.65 0.63 0.71 0.77 0.92 0.94 0.85 0.75 0.72 0.62 0.51 0.46 0.57 0.50 0.31 0.23 0.15 0.10 0.09 0.06 0.05 0.04 0.05 0.12 0.21 0.32 0.39 0.33 0.28 0.27 0.26 0.22 0.13
0.51 0.47 0.49 0.40 0.41 0.43 0.47 0.42 0.40 0.44 0.47 0.56 0.62 0.66 0.71 0.80 0.89 0.78 0.66 0.61 0.51 0.49 0.52 0.54 0.38 0.26 0.20 0.13 0.13 0.10 0.08 0.08 0.06 0.09 0.10 0.14 0.19 0.26 0.31 0.34 0.31 0.29 0.26
0.31 0.32 0.30 0.29 0.27 0.27 0.30 0.33 0.36 0.37 0.31 0.27 0.31 0.47 0.62 0.75 0.83 0.84 0.82 0.70 0.67 0.64 0.57 0.58 0.49 0.36 0.28 0.17 0.23 0.19 0.17 0.15 0.14 0.13 0.16 0.16 0.24 0.26 0.26 0.31 0.38 0.38 0.39
0.29 0.32 0.31 0.35 0.38 0.40 0.43 0.41 0.33 0.31 0.25 0.22 0.23 0.31 0.40 0.48 0.56 0.60 0.72 0.70 0.71 0.72 0.70 0.68 0.60 0.47 0.33 0.24 0.25 0.26 0.41 0.33 0.43 0.47 0.49 0.48 0.51 0.52 0.59 0.66 0.59 0.53 0.45
0.52 0.53 0.57 0.56 0.48 0.44 0.77 0.59 0.41 0.31 0.27 0.25 0.21 0.16 0.21 0.45 0.49 0.57 0.60 0.64 0.70 0.80 0.80 0.68 0.65 0.63 0.44 0.45 0.44 0.56 0.64 0.69 0.62 0.48 0.51 0.48 0.44 0.48 0.51 0.53 0.67 0.65 0.64
1.07 1.12 1.05 0.94 0.67 0.53 0.83 0.69 0.62 0.32 0.35 0.34 0.24 0.29 0.32 0.32 0.41 0.30 0.62 0.72 0.73 0.94 1.08 1.01 0.98 0.83 0.84 0.91 0.96 1.01 1.04 1.06 0.94 0.72 0.70 0.76 0.76 0.79 0.69 0.68 0.78 0.43 0.38
1.35 1.09 0.97 0.88 0.88 0.92 0.96 0.87 0.97 0.64 0.58 0.49 0.36 0.30 0.30 0.30 0.53 0.57 0.53 0.74 0.92 1.14 1.31 1.42 1.64 1.75 1.70 1.45 1.39 1.33 1.25 1.25 1.16 1.07 0.97 1.07 0.90 0.87 0.79 0.69 1.02 0.57 0.41
1.06 0.96 0.86 0.83 0.73 0.69 0.94 0.79 0.78 0.50 0.59 0.62 0.52 0.56 0.62 0.43 0.94 0.84 0.55 0.67 0.87 1.03 1.47 1.50 1.50 1.52 1.47 1.27 1.14 1.21 1.37 1.54 1.50 1.22 1.10 1.09 0.97 0.94 0.86 0.76 0.82 0.86 0.52
1.21 1.17 1.10 1.05 1.10 0.74 1.03 0.93 0.90 0.70 0.81 0.79 0.74 0.75 1.27 0.91 1.27 0.94 0.78 0.75 0.95 1.05 1.04 1.09 1.17 1.17 1.10 1.08 1.20 0.99 1.05 1.57 1.93 1.82 1.43 1.33 1.15 1.16 1.27 1.12 0.92 0.81 0.69